CPA138 YSSY-VHHH

Flight info

Callsign CPA138
Flight time N/A
Altitude 41000
Route RIC6/34L RIC H530 SURVO R340 AMN A461 ZAM A583 SABNO V542 BETTY
Aircraft A333/H-SDE3GHIJ2J3J5M1RVWXY/LB2D1

Departure

Time 2026-05-04 03:51
Airport Sydney Kingsford Smith International Airport (YSSY)

Arrival

Time N/A
Airport Hong Kong International Airport (VHHH)
Time Latitude Longitude Altitude Speed Heading
2026-05-04 03:51 -33.85437 151.11030 7985 ft 253 kts 312°
2026-05-04 03:51 -33.84259 151.09431 9060 ft 257 kts 312°
2026-05-04 03:51 -33.83057 151.07827 10119 ft 260 kts 313°
2026-05-04 03:51 -33.81796 151.06170 10762 ft 279 kts 313°
2026-05-04 03:52 -33.80419 151.04380 11144 ft 304 kts 313°
2026-05-04 03:52 -33.78919 151.02440 11524 ft 329 kts 313°
2026-05-04 03:52 -33.77312 151.00365 12067 ft 346 kts 313°
2026-05-04 03:52 -33.75647 150.98218 12880 ft 354 kts 313°
2026-05-04 03:53 -33.73955 150.96034 13783 ft 360 kts 313°
2026-05-04 03:53 -33.72237 150.93814 14594 ft 365 kts 313°
2026-05-04 03:53 -33.70520 150.91597 15416 ft 369 kts 313°
2026-05-04 03:53 -33.68764 150.89331 16205 ft 373 kts 313°
2026-05-04 03:54 -33.66984 150.87034 16975 ft 377 kts 313°
2026-05-04 03:54 -33.65186 150.84716 17708 ft 381 kts 313°
2026-05-04 03:54 -33.63365 150.82370 18419 ft 385 kts 313°
2026-05-04 03:54 -33.61526 150.80003 19021 ft 389 kts 313°
2026-05-04 03:55 -33.59664 150.77626 19662 ft 391 kts 314°
2026-05-04 03:55 -33.57765 150.75321 20280 ft 393 kts 315°
2026-05-04 03:55 -33.55801 150.73023 20882 ft 395 kts 315°
2026-05-04 03:55 -33.53811 150.70735 21474 ft 398 kts 315°
2026-05-04 03:56 -33.51797 150.68430 21994 ft 402 kts 315°
2026-05-04 03:56 -33.49765 150.66103 22530 ft 405 kts 315°
2026-05-04 03:56 -33.47720 150.63755 23074 ft 408 kts 315°
2026-05-04 03:56 -33.45667 150.61389 23628 ft 410 kts 315°
2026-05-04 03:57 -33.43607 150.59013 24113 ft 412 kts 315°
2026-05-04 03:57 -33.42238 150.57433 24428 ft 413 kts 315°
2026-05-04 03:57 -33.39497 150.54269 25110 ft 413 kts 314°
2026-05-04 03:57 -33.37433 150.51889 25617 ft 413 kts 314°
2026-05-04 03:58 -33.33284 150.47106 26612 ft 413 kts 314°
2026-05-04 03:58 -33.31907 150.45522 26921 ft 414 kts 314°
2026-05-04 03:58 -33.29827 150.43130 27375 ft 415 kts 314°
2026-05-04 03:59 -33.27069 150.39960 27999 ft 416 kts 314°
2026-05-04 03:59 -33.24982 150.37564 28421 ft 416 kts 314°
2026-05-04 03:59 -33.22886 150.35159 28741 ft 419 kts 314°
2026-05-04 03:59 -33.21487 150.33555 28987 ft 420 kts 314°
2026-05-04 04:00 -33.18670 150.30328 29605 ft 419 kts 314°
2026-05-04 04:00 -33.17278 150.28733 29943 ft 418 kts 315°
2026-05-04 04:00 -33.15194 150.26348 30503 ft 413 kts 314°
2026-05-04 04:00 -33.13127 150.23984 30989 ft 410 kts 314°
2026-05-04 04:01 -33.11079 150.21646 31530 ft 405 kts 314°
2026-05-04 04:01 -33.09042 150.19321 32014 ft 402 kts 313°
2026-05-04 04:01 -33.07023 150.17015 32455 ft 400 kts 313°
2026-05-04 04:01 -33.05014 150.14721 32830 ft 399 kts 313°
2026-05-04 04:02 -33.03056 150.12487 33062 ft 401 kts 313°
2026-05-04 04:02 -33.01031 150.10177 33232 ft 405 kts 313°
2026-05-04 04:02 -32.99010 150.07873 33458 ft 406 kts 313°
2026-05-04 04:02 -32.96972 150.05554 33845 ft 404 kts 313°
2026-05-04 04:03 -32.94945 150.03252 34219 ft 401 kts 312°
2026-05-04 04:03 -32.92926 150.00962 34548 ft 399 kts 312°
2026-05-04 04:03 -32.90917 149.98682 34792 ft 399 kts 312°
2026-05-04 04:03 -32.88910 149.96404 35116 ft 398 kts 312°
2026-05-04 04:04 -32.86912 149.94139 35403 ft 396 kts 312°
2026-05-04 04:04 -32.84925 149.91888 35763 ft 393 kts 311°
2026-05-04 04:04 -32.82949 149.89652 36081 ft 391 kts 311°
2026-05-04 04:04 -32.81003 149.87449 36349 ft 390 kts 311°
2026-05-04 04:05 -32.79015 149.85200 36632 ft 389 kts 311°
2026-05-04 04:05 -32.77078 149.83010 36887 ft 388 kts 311°
2026-05-04 04:05 -32.75121 149.80801 37093 ft 388 kts 311°
2026-05-04 04:05 -32.73168 149.78597 37359 ft 386 kts 311°
2026-05-04 04:06 -32.71217 149.76395 37616 ft 385 kts 311°
2026-05-04 04:06 -32.69299 149.74231 37873 ft 384 kts 311°
2026-05-04 04:06 -32.67355 149.72040 38106 ft 384 kts 311°
2026-05-04 04:06 -32.65420 149.69861 38356 ft 383 kts 311°
2026-05-04 04:07 -32.63491 149.67689 38626 ft 382 kts 311°
2026-05-04 04:07 -32.61561 149.65519 38832 ft 381 kts 311°
2026-05-04 04:07 -32.59630 149.63350 38975 ft 382 kts 311°